Regional Weather Roundup
Issued by NWS

Home | Current Version | Previous Version | Text Only | Print | Product List | Glossary On
Versions: 1 2 3 4 5 6 7 8 9 10 11 12 13 14 15 16 17 18 19 20 21 22 23 24 25 26 27 28 29 30 31 32 33 34 35 36 37 38 39 40 41 42 43 44 45 46 47 48 49 50
000
ASUS44 KOUN 231310
RWROK

WEATHER ROUNDUP FOR OKLAHOMA
NATIONAL WEATHER SERVICE NORMAN OK
700 AM CST SUN NOV 23 2014

NOTE: "FAIR" INDICATES FEW OR NO CLOUDS BELOW 12,000 FEET WITH NO
      SIGNIFICANT WEATHER AND/OR OBSTRUCTIONS TO VISIBILITY.

OKZ001>007-009>012-014-015-017-231400-
NORTHWEST OKLAHOMA AND THE PANHANDLE

CITY           SKY/WX    TMP DP  RH WIND       PRES   REMARKS
GAGE           CLOUDY    44  43  96 S15       29.41S
ENID/WOODRING  MOCLDY    54  54 100 S12       29.45S
$$

OKZ016-021>023-033>039-044-045-231400-
SOUTHWEST OKLAHOMA

CITY           SKY/WX    TMP DP  RH WIND       PRES   REMARKS
LAWTON/REGL    CLOUDY    52  51  97 S10       29.49F
LAWTON/FT SILL CLOUDY    52  52 100 S14       29.46F
FREDERICK      FOG       50  49  96 S12       29.43F VSB 3/4
CLINTON        CLOUDY    50  47  89 S15       29.46S
HOBART         MOCLDY    50  49  96 S15       29.46F
ALTUS AFB      MOCLDY    48  48 100 SE6       29.46S
$$

OKZ018>020-024>031-231400-
CENTRAL OKLAHOMA

CITY           SKY/WX    TMP DP  RH WIND       PRES   REMARKS
OKLAHOMA CITY  CLOUDY    55  52  89 S13G21    29.48F
OKC/WILEY POST CLOUDY    55  52  89 S18       29.48F
OKC/TINKER AFB CLOUDY    55  54  94 S15       29.52F
STILLWATER     CLOUDY    57  52  83 S12       29.46F
GUTHRIE        CLOUDY    55  52  89 S15G26    29.46F
$$

OKZ008-013-054>072-231400-
NORTHEAST OKLAHOMA

CITY           SKY/WX    TMP DP  RH WIND       PRES   REMARKS
TULSA          CLOUDY    57  55  93 S12       29.52F
TULSA/JONES    MOCLDY    57  55  93 S12       29.52F
PONCA CITY     CLOUDY    58  53  84 S10G17    29.47S
BARTLESVILLE   CLOUDY    56  55  97 S8        29.52F
MUSKOGEE       CLOUDY    55  54  96 SE7       29.57F FOG
$$

OKZ032-040>043-046>053-073>077-231400-
SOUTH CENTRAL/SOUTHEAST OKLAHOMA

CITY           SKY/WX    TMP DP  RH WIND       PRES   REMARKS
ARDMORE/DWNTWN CLOUDY    54  52  94 S7        29.53F FOG
MCALESTER      CLOUDY    60  57  89 S5        29.56F
$$



USA.gov is the U.S. government's official web portal to all federal, state and local government web resources and services.